{"data":{"norad_id":65354,"epoch":"2026-09-20T12:17:43.806048Z","epoch_age_seconds":116556,"freshness":"FRESH","line1":"1 65354U 25190D   26263.51231257  .00021390  00000+0  64233-3 0  9990","line2":"2 65354  53.1601 339.6924 0001234  95.8895 264.2249 15.34402389 59160","mean_motion":15.34402389,"eccentricity":0.0001234,"inclination_deg":53.1601,"raan_deg":339.6924,"arg_perigee_deg":95.8895,"mean_anomaly_deg":264.2249,"bstar":0.00064233,"rev_number":5916,"period_min":93.847611964322,"perigee_km":461.85198079543,"apogee_km":463.54029841429,"semimajor_km":6840.8331396049,"source":"CELESTRAK","updated_at":"2026-09-21T09:00:35.575561Z"}}